Location: Ferchesar
(52.6477°N, 12.4298°E)
Time: 03:36:57
(UTC+01:00)

Vanguard 1 - Pass Details

Date: 10 December 2021
Orbit: 652 x 3830 km, 34.2° (Epoch: 21 January)

Event Time Altitude Azimuth Distance (km) Brightness Sun altitude
Rises 23:12:54 0° 235° (SW) 6,689 14.3 -58.8°
Enters shadow 23:15:18 - 232° (SW) 6,303 14.0 -59.0°
Exits shadow 23:55:49 11° 105° (ESE) 6,548 14.1 -60.3°
Drops below altitude 10° 23:56:02 10° 105° (ESE) 6,581 14.1 -60.3°
Sets 00:00:59 0° 100° (E) 7,336 14.5 -60.3°
